Regional Weather Roundup
Issued by NWS Jackson, KY

Home | Current Version | Previous Version | Text Only | Print | Product List | Glossary Off
Versions: 1 2 3 4 5 6 7 8 9 10 11 12 13 14 15 16 17 18 19 20 21 22 23 24 25 26 27 28 29 30 31 32 33 34 35 36 37 38 39 40 41 42 43 44 45 46 47 48 49 50

000
ASUS43 KJKL 300810
RWRJKL

EAST KENTUCKY HOURLY WEATHER ROUNDUP
NATIONAL WEATHER SERVICE JACKSON KY
400 AM EDT TUE JUN 30 2015

NOTE: "FAIR" INDICATES FEW OR NO CLOUDS BELOW 12,000 FEET WITH
NO SIGNIFICANT WEATHER AND/OR OBSTRUCTIONS TO VISIBILITY.

* THESE REPORTS ARE NOT UNDER NWS QUALITY CONTROL AND MAY NOT
  REPORT WEATHER SUCH AS PRECIPITATION AND FOG.

KYZ079-080-083-085-087-088-110-112-115-119-120-300900
...EASTERN KENTUCKY...

CITY           SKY/WX    TMP DP  RH WIND       PRES   REMARKS
JACKSON        CLOUDY    66  63  90 VRB3      29.92R
LONDON         MOCLDY    67  61  81 SW5       29.93S
SOMERSET*      PTCLDY    63  63 100 CALM      29.93S
MONTICELLO*    CLOUDY    67  67 100 CALM      29.95R
MIDDLESBORO*   CLOUDY    66  66  99 CALM      29.95R
HARLAN APT*      N/A     64  64 100 CALM      29.96S VSB 3/4
HAZARD APT*    MOSUNNY   68  66  94 SW5       29.92R
BLACK MTN*       N/A     59  59 100 S3          N/A
PIKEVILLE APT* CLOUDY    68  64  88 SW3       29.92R
BIG SANDY*     CLOUDY    69  65  88 SW5       29.91R
MOREHEAD APT*  PTSUNNY   66  64  94 S9        29.90R FOG
$$

KYZ035-036-041-042-044-050-067-078-099-300900
...CENTRAL KENTUCKY...

CITY           SKY/WX    TMP DP  RH WIND       PRES   REMARKS
MT STERLING*   MOCLDY    64  64 100 SW8       29.91R
FLEMING/MASON* CLEAR     64  64 100 SW7       29.87S FOG
DANVILLE*      CLOUDY    64  64 100 SW7       29.92R
RICHMOND*      MOCLDY    66  63  88 SW7       29.91R
LEXINGTON      PTCLDY    65  64  97 S8        29.89R
FRANKFORT      CLEAR     65  63  93 SW3       29.86S
$$

KYZ091>093-OHZ055-061-077-WVZ005-015-034-035-042-300900
...SOUTHERN OHIO/WEST VIRGINIA...

CITY           SKY/WX    TMP DP  RH WIND       PRES   REMARKS
COVINGTON      CLEAR     65  64  97 SW6       29.83F
COLUMBUS       CLOUDY    61  61 100 CALM      29.81S FOG
DAYTON         MOCLDY    62  61  96 CALM      29.82F FOG
WILMINGTON     CLOUDY    66  64  93 SW8       29.82F FOG
HUNTINGTON     MOCLDY    65  65 100 SW3       29.86R
CHARLESTON     CLOUDY    69  65  86 SW6       29.87R
PINEVILLE*     CLOUDY    66  65  97 MISG      29.98S
BECKLEY        MOCLDY    67  59  75 SW5       29.96S
BLUEFIELD      MOCLDY    66  60  81 W8        29.99S
$$

VAZ002-007-008-TNZ017-027-036-066-071-300900
...SOUTHWEST VIRGINIA/EAST TENNESSEE...

CITY           SKY/WX    TMP DP  RH WIND       PRES   REMARKS
WISE*          CLOUDY    64  64 100 SW9       30.01R
JONESVILLE*      N/A    N/A N/A N/A MISG        N/A
ABINGDON*      CLOUDY    68  63  83 SW3       29.99R
BRISTOL        CLOUDY    69  61  75 CALM      29.96S
KNOXVILLE      MOCLDY    68  65  90 SE6       29.93F
OAK RIDGE      RAIN      65  62  90 VRB3      29.98R FOG
CROSSVILLE     CLOUDY    64  61  90 NE3       29.99F
NASHVILLE      MOCLDY    71  70  96 CALM      29.90F
$$

...KEY TO REMARKS...
VSB - VISIBILITY IN MILES
WCI - WIND CHILL INDEX
HX  - HEAT INDEX

$$


USA.gov is the U.S. government's official web portal to all federal, state and local government web resources and services.